Wind_Speed
36 36 36 36 36 35 35 34 35 34 33 33 33 33 32 32 32 32 31 31 31 30 30 30 30 30 31 31 30 30 30 31 30 30 30 30 31 32 32 31 32 32 32
37 37 37 38 38 37 36 36 37 36 35 35 36 35 35 34 33 33 32 32 32 32 31 31 31 31 32 32 32 31 31 32 31 32 31 31 32 33 33 33 34 34 34
38 39 39 39 39 39 39 38 38 37 37 36 36 36 36 36 34 34 34 33 33 33 33 33 33 33 33 33 33 34 34 33 33 34 33 33 33 34 34 35 35 36 35
39 40 41 41 41 41 40 40 40 39 40 39 38 38 37 36 37 36 35 34 34 34 34 34 34 34 34 34 34 35 35 35 35 35 35 35 36 36 36 37 36 37 37
40 40 41 42 42 43 42 42 42 41 42 42 41 40 40 38 38 37 37 36 36 36 36 36 36 36 36 35 35 36 36 37 37 37 37 38 38 38 38 38 38 39 39
41 41 41 42 43 43 43 43 44 43 43 43 42 41 41 40 39 39 38 37 37 37 37 36 36 36 37 37 37 36 37 38 38 39 39 39 39 40 40 40 40 40 41
42 43 43 43 44 44 43 44 43 44 44 44 43 42 41 42 40 40 40 39 39 39 38 38 38 38 38 38 38 38 38 39 40 40 40 40 40 41 41 41 42 43 43
43 44 44 44 44 44 44 44 44 44 44 44 44 44 43 42 42 41 41 41 41 41 40 40 40 40 39 40 40 40 40 41 41 42 43 42 42 42 42 42 43 44 45
42 44 45 46 45 45 44 44 44 44 44 44 45 45 44 43 43 42 42 41 41 41 41 41 41 41 41 42 42 43 43 43 43 43 43 43 44 44 43 43 44 45 45
43 44 45 45 45 44 44 44 44 44 45 45 45 45 45 44 43 43 43 42 42 42 42 42 42 42 43 43 44 44 44 44 43 43 44 44 44 44 45 45 45 46 46
43 43 44 44 44 44 44 44 44 44 45 45 45 46 46 45 45 45 44 43 43 43 43 43 43 43 44 44 44 44 45 44 44 44 45 45 45 46 46 46 46 47 47
43 43 42 42 43 44 44 44 45 45 45 45 45 46 46 46 45 45 44 44 44 44 44 44 44 44 44 43 43 43 43 44 45 45 45 46 46 47 47 48 48 48 49
42 42 42 42 42 43 44 45 45 45 45 45 46 46 47 47 46 46 45 44 45 44 44 44 44 43 42 43 43 43 43 44 44 45 45 45 46 46 47 48 48 49 49
42 42 43 43 43 43 44 45 45 45 45 46 46 46 46 47 47 46 46 46 45 45 44 44 44 43 42 43 43 44 44 44 45 45 46 46 47 47 48 48 49 49 48
42 43 43 44 45 44 44 45 45 46 46 46 46 46 46 46 46 46 46 46 46 45 44 44 45 44 43 44 44 44 45 45 46 46 47 47 47 48 49 49 49 48 48
42 42 42 43 45 45 45 45 45 46 46 46 46 46 46 46 46 46 46 46 46 46 45 44 44 44 44 44 45 45 45 46 47 48 48 49 49 49 49 50 50 49 48
42 42 42 43 44 44 45 45 44 44 45 45 46 46 46 46 46 46 46 47 46 46 46 44 45 46 46 46 46 46 47 47 47 48 49 49 49 49 49 49 48 49 49
42 42 43 43 43 43 44 45 45 45 45 46 46 47 46 47 47 46 47 47 47 47 47 46 47 46 46 46 47 47 48 48 48 47 47 47 48 48 48 48 49 49 49
41 42 42 42 42 43 44 45 45 46 45 45 46 46 46 46 46 46 47 47 48 48 47 47 47 47 47 47 47 48 48 48 48 47 47 48 48 48 48 48 48 48 49
39 39 40 41 41 42 43 44 45 46 46 46 46 46 46 46 46 46 47 47 48 48 49 49 48 48 48 48 48 48 47 47 47 48 48 48 49 48 47 47 48 48 48
37 37 38 39 40 40 41 43 44 44 45 46 46 46 46 47 47 47 47 48 48 49 49 48 48 47 48 48 48 47 46 46 47 47 47 47 47 47 47 47 47 47 46
35 35 36 36 37 39 39 41 42 43 44 45 45 46 47 47 47 47 48 48 48 48 48 48 48 48 47 47 47 47 47 47 46 46 46 46 46 46 46 46 46 46 45
34 34 35 35 36 36 37 38 39 41 42 43 43 44 45 47 47 46 46 46 46 47 47 48 48 48 47 47 47 48 48 48 47 47 47 46 46 45 45 45 44 43 42
33 33 34 34 34 35 35 36 37 38 40 40 41 42 43 44 45 45 45 44 45 46 46 46 47 46 47 47 47 47 47 47 46 46 46 45 44 44 43 43 42 41 41
31 32 32 32 32 33 33 34 35 36 37 38 38 39 40 41 42 43 44 43 43 43 44 44 44 45 45 46 45 45 45 44 43 43 44 43 42 42 41 41 40 39 39
29 29 30 30 31 31 32 32 33 34 35 36 36 36 37 38 38 39 40 40 40 40 41 41 42 42 42 42 42 42 42 42 41 40 40 40 39 40 39 38 38 37 37
Wind_Direction
254 253 253 254 255 256 256 257 259 260 261 263 266 266 266 266 265 264 264 264 264 266 267 268 267 267 267 267 268 268 268 269 271 271 272 273 274 275 276 277 278 278 278
254 253 253 253 254 255 256 257 258 260 263 265 266 267 266 266 263 262 263 264 264 265 266 267 267 267 267 267 268 269 270 270 271 271 272 273 274 275 275 277 277 277 277
254 253 253 254 254 255 256 257 257 259 262 265 266 267 268 266 262 261 262 263 263 264 266 267 267 267 268 268 268 268 269 270 271 272 273 274 274 274 276 277 276 277 277
255 255 255 255 255 255 256 257 258 260 261 264 266 266 266 266 263 262 261 261 263 264 265 266 267 267 268 268 268 268 269 270 270 272 274 275 275 276 276 277 277 278 277
256 256 255 256 256 257 258 258 259 261 262 263 265 265 265 265 264 263 262 262 263 265 265 266 266 267 267 269 269 269 270 271 271 272 273 275 276 276 277 277 277 278 278
256 257 258 257 258 259 259 260 261 262 263 265 265 265 263 264 264 263 263 264 264 265 265 264 265 265 268 270 271 271 272 272 273 273 274 274 276 277 277 277 278 278 278
257 258 258 258 258 258 259 261 262 262 263 264 264 265 264 264 265 265 263 264 265 265 263 263 264 266 268 268 269 271 272 272 272 274 275 276 277 277 277 278 278 278 279
258 259 258 258 259 259 260 261 262 262 263 264 264 265 265 266 265 265 265 265 265 265 264 263 264 265 267 268 269 271 271 272 273 274 275 276 276 277 278 278 278 278 279
259 259 259 259 259 260 261 262 262 262 263 263 264 264 264 265 265 265 266 267 267 266 265 265 265 265 267 268 269 270 271 272 273 274 275 275 276 277 278 278 279 279 279
258 260 261 261 260 260 260 262 262 262 262 262 263 263 264 264 265 265 265 267 267 268 268 266 266 266 267 269 270 270 271 272 273 273 275 275 275 276 277 278 279 280 280
259 260 261 261 260 259 260 261 261 261 261 261 262 263 263 263 265 265 265 265 266 268 267 266 267 267 267 269 270 270 271 273 273 275 275 275 275 276 277 278 279 279 280
259 259 260 261 261 259 259 259 260 260 259 260 262 262 263 263 265 265 265 265 266 267 267 267 267 268 268 269 269 271 273 274 273 274 275 275 276 276 276 278 279 280 280
259 259 259 260 261 260 259 259 259 259 260 261 262 262 263 264 265 266 266 267 267 268 268 268 268 269 269 268 270 272 273 273 273 274 275 276 276 277 278 279 280 280 280
260 260 259 259 260 260 260 260 259 258 259 261 262 263 263 264 264 265 266 267 267 268 268 268 268 270 270 270 272 273 273 273 273 275 276 276 277 278 279 280 281 281 281
261 261 261 259 259 259 260 259 259 258 259 260 262 262 262 263 263 264 266 267 268 268 268 268 268 269 271 271 273 273 273 273 274 275 277 278 278 279 279 280 280 281 281
262 261 262 262 261 260 260 260 259 259 259 260 260 261 262 262 263 263 265 266 268 268 268 268 268 268 270 272 273 273 274 274 274 275 277 278 279 280 280 280 280 280 281
263 263 263 262 262 261 260 259 260 261 260 260 260 260 260 261 262 263 265 265 267 268 268 268 269 269 269 271 272 273 275 276 276 276 277 278 279 280 280 280 280 280 280
265 265 265 264 263 262 261 259 258 259 260 261 261 261 261 262 263 264 266 266 266 267 268 269 269 269 269 270 272 273 275 276 277 277 278 279 279 280 280 280 280 280 280
266 266 266 265 264 263 262 260 259 258 260 261 261 262 262 262 263 264 265 266 267 267 268 269 269 270 271 271 273 274 275 276 276 277 278 279 279 280 281 281 281 282 281
267 267 266 265 264 264 263 262 260 261 261 261 262 263 262 262 263 264 265 266 267 267 268 269 270 271 272 272 273 274 274 275 276 277 278 279 279 280 281 282 282 282 282
267 267 267 266 266 266 265 264 262 262 262 261 262 263 263 263 264 265 266 267 267 268 269 269 270 272 272 273 273 274 274 274 276 276 278 280 280 280 281 282 282 282 282
267 267 267 267 268 267 267 266 264 262 262 263 263 263 263 263 264 265 265 266 267 267 268 269 269 271 272 273 273 274 274 275 276 277 278 279 280 281 281 281 281 282 282
267 267 268 268 269 269 269 268 266 264 263 264 265 265 265 264 264 265 265 265 266 266 268 269 269 270 271 272 273 274 274 276 277 278 279 280 281 281 281 280 280 281 282
268 268 269 269 269 269 271 271 269 266 266 266 267 267 267 266 265 266 266 266 266 266 267 268 269 269 270 271 272 274 275 277 278 278 279 280 280 280 280 280 280 280 282
269 269 269 270 270 269 270 271 271 269 268 268 268 268 268 268 266 266 266 266 267 267 267 268 269 269 270 272 273 273 274 276 276 277 278 279 280 280 280 279 279 280 282
269 270 270 271 271 271 271 272 272 270 270 269 270 270 269 268 267 266 267 268 268 268 269 269 270 270 271 272 273 273 274 275 275 276 277 278 279 280 280 280 280 281 282
Height
5772 5773 5775 5777 5779 5781 5783 5784 5786 5787 5788 5789 5790 5791 5791 5792 5793 5794 5795 5795 5796 5797 5798 5798 5799 5799 5800 5800 5800 5801 5801 5801 5801 5801 5801 5801 5801 5801 5800 5800 5799 5799 5798
5763 5766 5768 5770 5771 5773 5775 5777 5778 5779 5780 5782 5782 5783 5784 5785 5786 5787 5787 5788 5789 5790 5791 5791 5792 5792 5792 5793 5793 5793 5794 5794 5794 5794 5794 5794 5794 5793 5793 5793 5792 5791 5791
5755 5757 5759 5761 5763 5765 5767 5768 5770 5771 5772 5773 5774 5775 5776 5777 5778 5779 5780 5780 5781 5782 5783 5784 5784 5785 5785 5785 5786 5786 5786 5787 5787 5787 5786 5786 5786 5786 5785 5785 5784 5783 5782
5746 5748 5750 5752 5754 5756 5758 5759 5761 5762 5763 5764 5765 5766 5767 5768 5770 5771 5772 5773 5774 5774 5775 5776 5776 5777 5777 5777 5778 5778 5778 5779 5779 5779 5779 5778 5778 5777 5777 5776 5775 5775 5774
5736 5739 5741 5743 5745 5746 5748 5750 5751 5753 5754 5755 5756 5757 5758 5760 5761 5762 5763 5764 5765 5766 5767 5767 5768 5769 5769 5769 5769 5770 5770 5770 5770 5770 5770 5770 5769 5769 5768 5767 5767 5766 5765
5727 5729 5731 5733 5735 5737 5738 5740 5742 5743 5745 5746 5747 5748 5749 5750 5752 5753 5754 5755 5756 5757 5758 5758 5759 5760 5760 5760 5761 5761 5761 5762 5762 5761 5761 5761 5760 5760 5759 5758 5757 5756 5756
5717 5719 5721 5723 5725 5727 5729 5730 5732 5734 5735 5736 5737 5738 5740 5741 5742 5743 5745 5745 5746 5747 5748 5749 5750 5751 5751 5751 5752 5752 5752 5752 5752 5752 5752 5751 5750 5750 5749 5748 5747 5746 5746
5707 5709 5711 5713 5714 5716 5718 5720 5722 5723 5725 5726 5727 5728 5730 5732 5733 5734 5735 5736 5737 5737 5738 5739 5740 5741 5742 5742 5743 5743 5743 5743 5742 5742 5742 5741 5740 5740 5739 5738 5737 5736 5735
5697 5698 5700 5701 5703 5706 5708 5709 5711 5713 5714 5716 5717 5718 5720 5722 5723 5724 5725 5726 5726 5727 5728 5729 5730 5731 5732 5732 5733 5733 5733 5732 5732 5732 5731 5731 5730 5729 5728 5727 5726 5725 5724
5686 5688 5689 5690 5692 5694 5696 5698 5700 5702 5703 5705 5706 5707 5709 5711 5712 5714 5715 5715 5716 5717 5718 5718 5719 5720 5721 5721 5722 5722 5722 5722 5721 5721 5720 5720 5719 5718 5717 5716 5715 5714 5712
5675 5676 5678 5679 5681 5683 5685 5687 5689 5690 5692 5694 5695 5697 5698 5699 5701 5702 5704 5705 5705 5706 5706 5707 5708 5708 5709 5709 5710 5710 5710 5710 5710 5709 5709 5708 5708 5707 5706 5705 5704 5702 5701
5664 5666 5667 5668 5670 5671 5673 5675 5677 5679 5681 5682 5684 5686 5687 5689 5690 5691 5692 5693 5694 5695 5695 5696 5697 5697 5697 5698 5698 5698 5698 5698 5698 5698 5697 5697 5696 5695 5694 5693 5692 5690 5688
5654 5655 5656 5658 5659 5660 5662 5664 5666 5668 5670 5671 5673 5675 5676 5677 5679 5680 5681 5682 5683 5684 5684 5685 5685 5686 5686 5687 5687 5687 5687 5687 5687 5686 5686 5685 5684 5683 5682 5681 5679 5678 5676
5643 5644 5645 5646 5648 5649 5650 5652 5654 5656 5658 5660 5662 5663 5665 5666 5667 5669 5670 5671 5671 5672 5673 5674 5674 5675 5675 5676 5676 5676 5676 5676 5675 5675 5674 5673 5672 5671 5670 5668 5667 5665 5663
5632 5632 5634 5635 5636 5637 5639 5640 5642 5644 5646 5648 5650 5652 5653 5654 5656 5657 5658 5659 5660 5661 5663 5663 5663 5664 5664 5664 5664 5664 5664 5664 5663 5662 5662 5661 5660 5658 5657 5656 5654 5652 5651
5620 5621 5622 5623 5624 5625 5627 5629 5630 5632 5634 5636 5638 5639 5641 5643 5644 5645 5646 5647 5648 5649 5651 5652 5652 5652 5653 5653 5653 5653 5652 5652 5651 5650 5649 5648 5647 5645 5644 5642 5641 5639 5637
5609 5609 5610 5611 5612 5613 5614 5616 5618 5620 5622 5623 5625 5627 5629 5630 5631 5633 5634 5635 5636 5637 5638 5640 5640 5640 5640 5641 5640 5640 5640 5639 5638 5637 5636 5635 5633 5632 5630 5628 5627 5625 5624
5597 5598 5598 5599 5600 5601 5602 5604 5606 5608 5609 5611 5613 5614 5616 5617 5619 5620 5621 5622 5623 5624 5626 5627 5627 5628 5628 5628 5628 5627 5627 5626 5625 5624 5623 5621 5620 5618 5617 5615 5613 5611 5610
5586 5586 5587 5588 5588 5589 5590 5592 5593 5595 5597 5598 5600 5602 5603 5605 5606 5607 5608 5609 5610 5611 5612 5613 5614 5615 5615 5615 5614 5614 5614 5613 5612 5611 5610 5608 5607 5605 5603 5601 5599 5597 5596
5575 5575 5575 5576 5577 5577 5578 5579 5581 5583 5584 5585 5587 5589 5590 5592 5593 5594 5595 5596 5597 5598 5599 5600 5601 5601 5602 5601 5601 5601 5601 5599 5598 5597 5596 5595 5593 5591 5589 5588 5586 5584 5582
5564 5564 5564 5565 5565 5566 5567 5567 5569 5570 5571 5573 5574 5576 5577 5578 5580 5581 5582 5583 5584 5584 5585 5586 5587 5587 5588 5588 5587 5587 5587 5586 5585 5584 5583 5581 5580 5578 5576 5574 5572 5570 5568
5554 5554 5554 5555 5555 5555 5555 5556 5557 5558 5559 5560 5561 5562 5564 5565 5566 5567 5568 5569 5570 5571 5572 5573 5573 5574 5574 5574 5573 5573 5573 5573 5573 5572 5570 5569 5566 5565 5563 5561 5559 5557 5555
5544 5544 5544 5544 5545 5545 5545 5545 5545 5546 5547 5548 5548 5549 5550 5552 5553 5554 5555 5555 5556 5557 5558 5559 5560 5560 5560 5560 5560 5560 5559 5558 5558 5557 5556 5556 5554 5552 5550 5548 5546 5544 5543
5534 5534 5534 5534 5534 5534 5534 5534 5534 5535 5535 5536 5537 5537 5538 5538 5539 5540 5541 5542 5542 5543 5544 5545 5546 5546 5546 5545 5545 5545 5544 5544 5544 5543 5542 5542 5541 5539 5538 5535 5533 5532 5531
5525 5525 5525 5525 5525 5525 5524 5524 5524 5524 5524 5525 5525 5525 5526 5526 5526 5527 5528 5529 5529 5529 5530 5531 5531 5531 5532 5531 5531 5531 5531 5531 5531 5530 5529 5528 5528 5527 5525 5524 5522 5521 5519
5516 5516 5516 5516 5516 5515 5515 5515 5514 5514 5514 5514 5514 5514 5514 5514 5514 5514 5515 5515 5516 5517 5517 5517 5518 5518 5518 5518 5518 5518 5518 5518 5517 5518 5517 5516 5515 5514 5514 5513 5511 5510 5508